Regional Weather Roundup
Issued by NWS

Home | Current Version | Previous Version | Graphics & Text | Print | Product List | Glossary On
Versions: 1 2 3 4 5 6 7 8 9 10 11 12 13 14 15 16 17 18 19 20 21 22 23 24 25 26 27 28 29 30 31 32 33 34 35 36 37 38 39 40 41 42 43 44 45 46 47 48 49 50
000
ASUS43 KLSX 281607
RWRMO

WEATHER SUMMARY FOR MISSOURI
NATIONAL WEATHER SERVICE SPRINGFIELD MO
1100 AM CDT MON JUL 28 2014

NOTE: "FAIR" INDICATES FEW OR NO CLOUDS BELOW 12,000 FEET WITH NO
       SIGNIFICANT WEATHER AND/OR OBSTRUCTIONS TO VISIBILITY.
       CURRENT SKY AND/OR WEATHER CONDITIONS ARE NOT AVAILABLE FOR
       CHILLICOTHE AND FARMINGTON.

MOZ001>031-035>038-043-044-053-054-281700-
...NORTHERN AND WESTERN MISSOURI...

CITY           SKY/WX    TMP DP  RH WIND       PRES   REMARKS
KANSAS CTY INT PTSUNNY   73  61  65 N8        30.23R
KANSAS C DTWN  MOSUNNY   75  61  61 NW7       30.22R
LEE`S SUMMIT   MOSUNNY   73  59  61 N12       30.23R
ST JOSEPH      PTSUNNY   70  62  76 N5        30.24R
CHILLICOTHE      N/A     73  59  61 N5        30.21R
KIRKSVILLE     PTSUNNY   69  60  73 N9        30.20S

$$
MOZ066>068-077>081-088>096-101>105-281700-
...SOUTHWEST MISSOURI...

CITY           SKY/WX    TMP DP  RH WIND       PRES   REMARKS
SPRINGFIELD    SUNNY     76  58  53 NW9       30.20R
JOPLIN         SUNNY     77  58  51 N9        30.23R

$$
MOZ032>034-039>042-045>050-055>058-069>072-281700-
...CENTRAL MISSOURI...

CITY           SKY/WX    TMP DP  RH WIND       PRES   REMARKS
COLUMBIA       PTSUNNY   75  61  61 NW12      30.16S
JEFFERSON CITY PTSUNNY   75  61  61 VRB6      30.15R
ROLLA          MOSUNNY   76  59  55 N9        30.14R
SEDALIA        MOSUNNY   73  62  68 NW9       30.20R
WHITEMAN AFB   MOSUNNY   73  52  47 NW10      30.20R
OSAGE BEACH    MOSUNNY   75  59  57 NW7       30.17R

$$
MOZ051-052-059>065-281700-
...EAST CENTRAL MISSOURI...

CITY           SKY/WX    TMP DP  RH WIND       PRES   REMARKS
ST LOUIS INTL  PTSUNNY   74  61  63 N9        30.12R
SPIRIT OF STL  PTSUNNY   75  61  61 NW8       30.11S
ST CHARLES     CLOUDY    73  61  65 NW9       30.11S

$$
MOZ072>076-082>087-097>100-106>115-281700-
...SOUTH CENTRAL AND SOUTHEAST MISSOURI...

CITY           SKY/WX    TMP DP  RH WIND       PRES   REMARKS
CAPE GIRARDEAU MOSUNNY   77  63  61 NW7       30.09R
FARMINGTON     MOSUNNY   73  61  64 N12       30.14R
POPLAR BLUFF   SUNNY     78  60  53 VRB7      30.09S
WEST PLAINS    SUNNY     77  59  53 VRB7      30.17S

$$


USA.gov is the U.S. government's official web portal to all federal, state and local government web resources and services.